Regional Weather Roundup
Issued by NWS Midland/Odessa, TX

Skip options and go directly to product.
Home | Oldest Version | Previous Version | Current Version | All | Text Only | Save Text | Print | Product List | Glossary Off

Skip product version selection by date and time.   

924
ASUS44 KMAF 301610
RWRMAF
MIDLAND AREA WEATHER ROUNDUP
NATIONAL WEATHER SERVICE MIDLAND TX
1100 AM CDT TUE SEP 30 2014

...IN SOUTHWEST TEXAS AND SOUTHEAST NEW MEXICO...

CITY           SKY/WX    TMP DP  RH WIND       PRES   REMARKS
ALPINE         MOSUNNY   78  55  45 SW12      30.08S
ANDREWS        FAIR      76  60  57 SW12      29.92S
ARTESIA        NOT AVBL
BIG SPRING     PTSUNNY   79  62  56 S18       29.93S
CARLSBAD       SUNNY     73  53  49 NE7       29.92F
DRYDEN           N/A     78  64  61 CALM      29.91R
FORT STOCKTON  SUNNY     82  58  43 SW15      29.92S
GUAD PASS      SUNNY     68  58  70 SW15      30.07S
HOBBS          SUNNY     72  63  73 S9        29.95S
MARFA          SUNNY     72  57  60 CALM      30.08S
MIDLAND AIRPK  SUNNY     76  62  61 S12G18    29.92S
MIDLAND INTL   SUNNY     77  61  57 S14       29.91S
ODESSA         SUNNY     76  61  59 SW10      29.92S
PECOS          SUNNY     76  60  57 CALM      29.90S
PRESIDIO       FAIR      78  59  52 E5        29.95S
SEMINOLE       SUNNY     74  60  61 SW7       29.93F
SNYDER         PTSUNNY   73  64  74 S13G21    29.91F
WINK           SUNNY     76  61  59 S5        29.90R
$$
...OTHER STATIONS IN TEXAS...

CITY           SKY/WX    TMP DP  RH WIND       PRES   REMARKS
ABILENE        SUNNY     82  63  52 S15G23    29.91F
AMARILLO       SUNNY     73  59  61 S18       29.89S
AUSTIN         MOSUNNY   81  68  64 S3        29.90S
BROWNSVILLE    MOSUNNY   83  79  88 S8        29.86S
CORPUS CHRISTI PTSUNNY   81  76  84 N8        29.85S
DALLAS FTW     PTSUNNY   83  68  60 S10       29.90S
DEL RIO        SUNNY     80  70  71 SE7       29.88S
EL PASO        MOSUNNY   77  49  37 W9        29.97S
HOUSTON INT    MOSUNNY   83  74  74 SE7       29.88S
LUBBOCK        MOSUNNY   72  60  66 S15       29.92S
SAN ANGELO     SUNNY     81  62  52 S17       29.91S
SAN ANTONIO    MOSUNNY   82  68  62 SE7       29.91S
WACO           MOSUNNY   83  69  62 S8        29.91S
WICHITA FALLS  NOT AVBL
$$
...OTHER LOCATIONS IN NEW MEXICO...

CITY           SKY/WX    TMP DP  RH WIND       PRES   REMARKS
ALAMAGORDO     SUNNY     72  54  53 W9        29.99R
ALBUQUERQUE    SUNNY     56  36  47 CALM      30.06S
CANNON AFB     SUNNY     70  44  38 W13       29.95S
CLOVIS           N/A     70  52  52 W8        29.97S
HOLLOMAN AFB   SUNNY     70  53  53 NW5       29.97R
ROSWELL        SUNNY     72  47  40 NW7       29.94S
RUIDOSO        SUNNY     59  34  38 N7        30.12R
SANTA FE       SUNNY     58  32  37 N12       30.06S
TRUTH OR CONSE SUNNY     66  38  35 CALM      30.02F
TUCUMCARI      SUNNY     68  45  43 W12       29.90S
$$

USA.gov is the U.S. government's official web portal to all federal, state and local government web resources and services.